Volver al catálogo

ATLAS 5 CENTAUR DEB

ActivoHEO
NORAD 44106·DEBRIS·🇺🇸 United States

Lanzado Sep 17, 2014 desde Cape Canaveral Space Force Station

Loading…

Próximos Pases (próximas 24 horas)

TLE

ActualizadoSource: Space-Track

Época: Sep 9, 2026, 08:05 UTC

1 44106U 14055CB  26252.33718625 -.00000104  00000-0  00000-0 0  9998
2 44106  20.2390 135.0133 4783821 179.8356 180.3994  1.84989577 51302

Sigue ATLAS 5 CENTAUR DEB en tiempo real con AllMySat

Download on the App Store